Volver al catálogo

ONEWEB-0239

ActivoComunicacionesPO
NORAD 48802·PAYLOAD·🇬🇧 United Kingdom

Lanzado May 28, 2021 desde Vostochny Cosmodrome

Loading…

Próximos Pases (próximas 24 horas)

TLE

ActualizadoSource: CelesTrak SupGP

Época: Sep 14, 2026, 20:58 UTC

1 48802C 21045AM  26257.87377732  .00003411  00000+0  90727-2 0  2572
2 48802  87.8992 241.3200 0001983  61.7110 333.1417 13.15546409    17

Sigue ONEWEB-0239 en tiempo real con AllMySat

Download on the App Store